Location: �perlecques
(50.8057°N, 2.1521°E)
Time: 19:49:05
(UTC+00:00)

Vanguard 3 - Pass Details

Date: 02 August 2021
Orbit: 510 x 3260 km, 33.3° (Epoch: 17 September)

Event Time Altitude Azimuth Distance (km) Brightness Sun altitude
Rises 00:41:41 0° 274° (W) 7,220 11.9 -20.8°
Reaches altitude 10° 00:50:47 10° 253° (WSW) 6,128 11.3 -20.5°
Maximum altitude 00:57:46 13° 231° (SW) 5,612 10.9 -20.2°
Enters shadow 00:58:15 13° 229° (SW) 5,591 10.9 -20.2°
